| time (UTC) | temp F | wind direction | speed knots | gust knots | rain 1hr in | rain 24hr in | rain mn in | humidity % | barometer mb |
| 20260506232553 | 86 | 118 | 2.6 | 7.0 | 0.00 | 0.00 | 0.00 | 67 | 1013.8 |
| 20260506232053 | 87 | 131 | 1.7 | 7.0 | 0.00 | 0.00 | 0.00 | 65 | 1013.8 |
| 20260506231559 | 88 | 115 | 3.5 | 6.1 | 0.00 | 0.00 | 0.00 | 64 | 1013.8 |
| 20260506231053 | 89 | 125 | 1.7 | 6.1 | 0.00 | 0.00 | 0.00 | 61 | 1013.7 |
| 20260506230553 | 90 | 134 | 0.0 | 6.1 | 0.00 | 0.00 | 0.00 | 58 | 1013.9 |
| 20260506225555 | 91 | 178 | 0.9 | 3.5 | 0.00 | 0.00 | 0.00 | 49 | 1013.7 |
| 20260506225051 | 91 | 271 | 0.9 | 3.5 | 0.00 | 0.00 | 0.00 | 49 | 1013.8 |
| 20260506224551 | 91 | 173 | 0.0 | 1.7 | 0.00 | 0.00 | 0.00 | 50 | 1013.7 |
| 20260506224050 | 91 | 174 | 0.0 | 1.7 | 0.00 | 0.00 | 0.00 | 49 | 1013.7 |
| 20260506223553 | 91 | 212 | 0.0 | 4.3 | 0.00 | 0.00 | 0.00 | 49 | 1013.7 |
| 20260506223050 | 91 | 213 | 0.9 | 4.3 | 0.00 | 0.00 | 0.00 | 48 | 1013.7 |
| 20260506222550 | 91 | 183 | 0.0 | 2.6 | 0.00 | 0.00 | 0.00 | 49 | 1013.8 |
| 20260506222052 | 91 | 206 | 0.9 | 2.6 | 0.00 | 0.00 | 0.00 | 47 | 1013.8 |
| 20260506221604 | 92 | 203 | 0.9 | 6.1 | 0.00 | 0.00 | 0.00 | 48 | 1013.8 |
| 20260506221049 | 92 | 195 | 0.9 | 3.5 | 0.00 | 0.00 | 0.00 | 48 | 1013.7 |
| 20260506220549 | 92 | 196 | 0.0 | 3.5 | 0.00 | 0.00 | 0.00 | 48 | 1013.7 |
| 20260506220049 | 92 | 196 | 0.9 | 3.5 | 0.00 | 0.00 | 0.00 | 47 | 1013.6 |
| 20260506215548 | 92 | 209 | 0.9 | 6.1 | 0.00 | 0.00 | 0.00 | 48 | 1013.6 |
| 20260506215051 | 92 | 190 | 3.5 | 6.1 | 0.00 | 0.00 | 0.00 | 46 | 1013.6 |
| 20260506214553 | 92 | 191 | 0.9 | 3.5 | 0.00 | 0.00 | 0.00 | 47 | 1013.7 |
| 20260506214048 | 92 | 166 | 0.9 | 7.0 | 0.00 | 0.00 | 0.00 | 47 | 1013.8 |
| 20260506213546 | 92 | 209 | 1.7 | 7.0 | 0.00 | 0.00 | 0.00 | 49 | 1013.8 |
| 20260506213047 | 92 | 184 | 0.9 | 3.5 | 0.00 | 0.00 | 0.00 | 48 | 1013.9 |
| 20260506212546 | 92 | 144 | 0.0 | 3.5 | 0.00 | 0.00 | 0.00 | 49 | 1013.9 |
| 20260506212045 | 92 | 148 | 0.9 | 5.2 | 0.00 | 0.00 | 0.00 | 47 | 1013.9 |
| 20260506211545 | 92 | 205 | 1.7 | 4.3 | 0.00 | 0.00 | 0.00 | 48 | 1014.0 |
| 20260506211047 | 92 | 191 | 0.9 | 4.3 | 0.00 | 0.00 | 0.00 | 48 | 1014.1 |
| 20260506210544 | 92 | 207 | 1.7 | 7.0 | 0.00 | 0.00 | 0.00 | 48 | 1014.0 |
| 20260506210053 | 92 | 211 | 3.5 | 7.0 | 0.00 | 0.00 | 0.00 | 48 | 1014.1 |
| 20260506205549 | 92 | 268 | 1.7 | 4.3 | 0.00 | 0.00 | 0.00 | 49 | 1014.1 |
| 20260506205042 | 92 | 184 | 0.9 | 2.6 | 0.00 | 0.00 | 0.00 | 48 | 1014.1 |
| 20260506204546 | 92 | 125 | 0.9 | 7.0 | 0.00 | 0.00 | 0.00 | 47 | 1014.1 |
| 20260506204041 | 92 | 224 | 1.7 | 7.0 | 0.00 | 0.00 | 0.00 | 47 | 1014.3 |
| 20260506203540 | 92 | 204 | 0.9 | 4.3 | 0.00 | 0.00 | 0.00 | 47 | 1014.3 |
| 20260506203041 | 92 | 290 | 1.7 | 5.2 | 0.00 | 0.00 | 0.00 | 46 | 1014.2 |
| 20260506202538 | 92 | 214 | 0.9 | 3.5 | 0.00 | 0.00 | 0.00 | 48 | 1014.3 |
| 20260506202037 | 92 | 152 | 0.9 | 2.6 | 0.00 | 0.00 | 0.00 | 49 | 1014.4 |
| 20260506201536 | 91 | 273 | 0.0 | 2.6 | 0.00 | 0.00 | 0.00 | 46 | 1014.6 |
| 20260506201035 | 91 | 195 | 0.0 | 4.3 | 0.00 | 0.00 | 0.00 | 48 | 1014.6 |
| 20260506200537 | 91 | 251 | 1.7 | 5.2 | 0.00 | 0.00 | 0.00 | 47 | 1014.7 |
| 20260506200035 | 91 | 163 | 1.7 | 5.2 | 0.00 | 0.00 | 0.00 | 48 | 1014.7 |
| 20260506195533 | 91 | 213 | 2.6 | 5.2 | 0.00 | 0.00 | 0.00 | 47 | 1014.8 |
| 20260506195033 | 91 | 218 | 1.7 | 6.1 | 0.00 | 0.00 | 0.00 | 48 | 1015.0 |
| 20260506194532 | 91 | 196 | 1.7 | 6.1 | 0.00 | 0.00 | 0.00 | 49 | 1015.0 |
| 20260506194031 | 92 | 269 | 1.7 | 5.2 | 0.00 | 0.00 | 0.00 | 47 | 1015.1 |
| 20260506193531 | 92 | 209 | 1.7 | 4.3 | 0.00 | 0.00 | 0.00 | 49 | 1015.2 |
| 20260506193037 | 92 | 200 | 0.9 | 4.3 | 0.00 | 0.00 | 0.00 | 47 | 1015.2 |
| 20260506192532 | 92 | 238 | 0.9 | 3.5 | 0.00 | 0.00 | 0.00 | 48 | 1015.2 |
| 20260506192029 | 91 | 269 | 0.0 | 3.5 | 0.00 | 0.00 | 0.00 | 49 | 1015.2 |
| 20260506191529 | 91 | 314 | 0.9 | 5.2 | 0.00 | 0.00 | 0.00 | 48 | 1015.3 |
| 20260506191028 | 91 | 269 | 1.7 | 6.1 | 0.00 | 0.00 | 0.00 | 49 | 1015.5 |
| 20260506190530 | 91 | 213 | 1.7 | 6.1 | 0.00 | 0.00 | 0.00 | 49 | 1015.4 |
| 20260506190030 | 92 | 234 | 0.9 | 3.5 | 0.00 | 0.00 | 0.00 | 49 | 1015.6 |
| 20260506185525 | 91 | 136 | 0.9 | 7.0 | 0.00 | 0.00 | 0.00 | 49 | 1015.5 |
| 20260506185025 | 91 | 196 | 3.5 | 7.0 | 0.00 | 0.00 | 0.00 | 48 | 1015.5 |
| 20260506184534 | 90 | 179 | 0.9 | 7.8 | 0.00 | 0.00 | 0.00 | 48 | 1015.6 |
| 20260506184024 | 91 | 249 | 2.6 | 7.8 | 0.00 | 0.00 | 0.00 | 49 | 1015.8 |
| 20260506183523 | 91 | 261 | 0.9 | 5.2 | 0.00 | 0.00 | 0.00 | 50 | 1015.7 |
| 20260506183021 | 91 | 196 | 1.7 | 5.2 | 0.00 | 0.00 | 0.00 | 50 | 1015.8 |
| 20260506182520 | 90 | 337 | 0.0 | 5.2 | 0.00 | 0.00 | 0.00 | 50 | 1015.8 |
| 20260506182020 | 90 | 286 | 1.7 | 7.0 | 0.00 | 0.00 | 0.00 | 50 | 1016.1 |
| 20260506181531 | 90 | 267 | 1.7 | 7.0 | 0.00 | 0.00 | 0.00 | 50 | 1016.2 |
| 20260506181021 | 90 | 248 | 1.7 | 5.2 | 0.00 | 0.00 | 0.00 | 51 | 1016.2 |
| 20260506180519 | 89 | 261 | 1.7 | 5.2 | 0.00 | 0.00 | 0.00 | 52 | 1016.3 |
| 20260506180016 | 89 | 240 | 2.6 | 5.2 | 0.00 | 0.00 | 0.00 | 53 | 1016.3 |
| 20260506175516 | 89 | 122 | 0.0 | 3.5 | 0.00 | 0.00 | 0.00 | 53 | 1016.3 |
| 20260506175014 | 89 | 123 | 0.9 | 4.3 | 0.00 | 0.00 | 0.00 | 53 | 1016.4 |
| 20260506174514 | 89 | 138 | 0.9 | 4.3 | 0.00 | 0.00 | 0.00 | 54 | 1016.5 |
| 20260506174015 | 88 | 284 | 0.9 | 6.1 | 0.00 | 0.00 | 0.00 | 52 | 1016.4 |
| 20260506173515 | 88 | 182 | 2.6 | 6.1 | 0.00 | 0.00 | 0.00 | 55 | 1016.6 |
| 20260506173012 | 88 | 168 | 0.0 | 3.5 | 0.00 | 0.00 | 0.00 | 57 | 1016.6 |
| 20260506172512 | 88 | 212 | 0.9 | 3.5 | 0.00 | 0.00 | 0.00 | 57 | 1016.7 |
| 20260506172011 | 87 | 274 | 0.9 | 4.3 | 0.00 | 0.00 | 0.00 | 57 | 1016.7 |
| 20260506171508 | 87 | 196 | 0.9 | 4.3 | 0.00 | 0.00 | 0.00 | 56 | 1016.7 |
| 20260506171011 | 86 | 212 | 0.9 | 5.2 | 0.00 | 0.00 | 0.00 | 58 | 1016.7 |
| 20260506170506 | 86 | 227 | 1.7 | 7.0 | 0.00 | 0.00 | 0.00 | 57 | 1016.8 |
| 20260506170005 | 86 | 182 | 1.7 | 7.0 | 0.00 | 0.00 | 0.00 | 59 | 1016.9 |
| 20260506165505 | 86 | 284 | 1.7 | 6.1 | 0.00 | 0.00 | 0.00 | 59 | 1017.0 |
| 20260506165004 | 86 | 183 | 1.7 | 5.2 | 0.00 | 0.00 | 0.00 | 59 | 1017.1 |
| 20260506164515 | 85 | 253 | 0.9 | 7.0 | 0.00 | 0.00 | 0.00 | 60 | 1017.0 |
| 20260506164003 | 86 | 198 | 1.7 | 6.1 | 0.00 | 0.00 | 0.00 | 60 | 1017.1 |
| 20260506163501 | 85 | 223 | 0.9 | 6.1 | 0.00 | 0.00 | 0.00 | 61 | 1017.1 |
| 20260506163111 | 85 | 157 | 1.7 | 7.0 | 0.00 | 0.00 | 0.00 | 61 | 1017.2 |
| 20260506162600 | 85 | 154 | 1.7 | 7.0 | 0.00 | 0.00 | 0.00 | 62 | 1017.3 |
| 20260506162059 | 84 | 146 | 1.7 | 7.8 | 0.00 | 0.00 | 0.00 | 62 | 1017.3 |
| 20260506161559 | 84 | 279 | 2.6 | 7.8 | 0.00 | 0.00 | 0.00 | 62 | 1017.3 |
| 20260506161100 | 84 | 171 | 1.7 | 6.1 | 0.00 | 0.00 | 0.00 | 63 | 1017.2 |
| 20260506160556 | 84 | 201 | 2.6 | 6.1 | 0.00 | 0.00 | 0.00 | 63 | 1017.3 |
| 20260506160107 | 84 | 151 | 2.6 | 7.0 | 0.00 | 0.00 | 0.00 | 65 | 1017.5 |
| 20260506155553 | 83 | 266 | 2.6 | 8.7 | 0.00 | 0.00 | 0.00 | 64 | 1017.4 |
| 20260506155053 | 83 | 216 | 2.6 | 8.7 | 0.00 | 0.00 | 0.00 | 65 | 1017.3 |
| 20260506154555 | 83 | 273 | 3.5 | 7.8 | 0.00 | 0.00 | 0.00 | 66 | 1017.5 |
| 20260506154051 | 83 | 182 | 1.7 | 6.1 | 0.00 | 0.00 | 0.00 | 66 | 1017.3 |
| 20260506153556 | 82 | 278 | 2.6 | 6.1 | 0.00 | 0.00 | 0.00 | 66 | 1017.5 |
| 20260506153049 | 82 | 223 | 1.7 | 8.7 | 0.00 | 0.00 | 0.00 | 67 | 1017.5 |
| 20260506152548 | 82 | 195 | 2.6 | 8.7 | 0.00 | 0.00 | 0.00 | 68 | 1017.4 |
| 20260506152048 | 81 | 231 | 1.7 | 5.2 | 0.00 | 0.00 | 0.00 | 69 | 1017.4 |
| 20260506151545 | 81 | 251 | 1.7 | 7.0 | 0.00 | 0.00 | 0.00 | 70 | 1017.3 |
| 20260506151045 | 81 | 264 | 1.7 | 7.0 | 0.00 | 0.00 | 0.00 | 70 | 1017.3 |
| 20260506150544 | 80 | 265 | 1.7 | 8.7 | 0.00 | 0.00 | 0.00 | 70 | 1017.3 |
| 20260506150053 | 80 | 226 | 0.9 | 7.0 | 0.00 | 0.00 | 0.00 | 71 | 1017.4 |
| 20260506145542 | 80 | 197 | 0.0 | 4.3 | 0.00 | 0.00 | 0.00 | 73 | 1017.2 |
| 20260506145040 | 79 | 171 | 0.9 | 5.2 | 0.00 | 0.00 | 0.00 | 73 | 1017.2 |
| 20260506144540 | 79 | 125 | 1.7 | 3.5 | 0.00 | 0.00 | 0.00 | 74 | 1017.1 |
| 20260506144038 | 79 | 157 | 0.9 | 5.2 | 0.00 | 0.00 | 0.00 | 74 | 1017.1 |
| 20260506143538 | 78 | 175 | 0.9 | 6.1 | 0.00 | 0.00 | 0.00 | 74 | 1017.1 |
| 20260506143039 | 78 | 184 | 1.7 | 5.2 | 0.00 | 0.00 | 0.00 | 75 | 1017.1 |
| 20260506142537 | 78 | 120 | 0.9 | 6.1 | 0.00 | 0.00 | 0.00 | 75 | 1017.2 |
| 20260506142035 | 78 | 129 | 1.7 | 6.1 | 0.00 | 0.00 | 0.00 | 75 | 1017.1 |
| 20260506141541 | 77 | 198 | 1.7 | 3.5 | 0.00 | 0.00 | 0.00 | 76 | 1017.2 |
| 20260506141032 | 77 | 187 | 0.0 | 4.3 | 0.00 | 0.00 | 0.00 | 77 | 1017.2 |
| 20260506140533 | 76 | 132 | 0.9 | 7.8 | 0.00 | 0.00 | 0.00 | 77 | 1017.1 |
| 20260506140029 | 76 | 215 | 2.6 | 7.8 | 0.00 | 0.00 | 0.00 | 77 | 1017.1 |
| 20260506135527 | 76 | 200 | 2.6 | 7.0 | 0.00 | 0.00 | 0.00 | 77 | 1017.1 |
| 20260506135025 | 75 | 225 | 0.9 | 7.0 | 0.00 | 0.00 | 0.00 | 78 | 1017.1 |
| 20260506134524 | 75 | 188 | 2.6 | 8.7 | 0.00 | 0.00 | 0.00 | 79 | 1017.2 |
| 20260506134023 | 75 | 192 | 1.7 | 8.7 | 0.00 | 0.00 | 0.00 | 78 | 1017.3 |
| 20260506133523 | 75 | 182 | 2.6 | 7.0 | 0.00 | 0.00 | 0.00 | 79 | 1017.1 |
| 20260506133020 | 74 | 140 | 0.9 | 2.6 | 0.00 | 0.00 | 0.00 | 80 | 1017.3 |
| 20260506132521 | 73 | 130 | 0.9 | 8.7 | 0.00 | 0.00 | 0.00 | 81 | 1017.1 |
| 20260506132018 | 73 | 213 | 0.9 | 8.7 | 0.00 | 0.00 | 0.00 | 81 | 1017.2 |
| 20260506131518 | 72 | 197 | 2.6 | 7.0 | 0.00 | 0.00 | 0.00 | 81 | 1017.2 |
| 20260506131015 | 72 | 192 | 0.9 | 4.3 | 0.00 | 0.00 | 0.00 | 83 | 1017.1 |
| 20260506130513 | 71 | 229 | 0.0 | 4.3 | 0.00 | 0.00 | 0.00 | 84 | 1017.0 |
| 20260506130013 | 70 | 360 | 0.9 | 4.3 | 0.00 | 0.00 | 0.00 | 84 | 1017.0 |
| 20260506125514 | 69 | 360 | 0.0 | 3.5 | 0.00 | 0.00 | 0.00 | 85 | 1017.0 |
| 20260506125009 | 68 | 360 | 0.9 | 2.6 | 0.00 | 0.00 | 0.00 | 86 | 1017.0 |
| 20260506124508 | 67 | 360 | 0.0 | 0.0 | 0.00 | 0.00 | 0.00 | 87 | 1016.8 |
| 20260506124006 | 67 | 360 | 0.0 | 0.0 | 0.00 | 0.00 | 0.00 | 88 | 1016.9 |
| 20260506123505 | 66 | 360 | 0.0 | 0.0 | 0.00 | 0.00 | 0.00 | 89 | 1016.8 |
| 20260506123004 | 65 | 360 | 0.0 | 0.0 | 0.00 | 0.00 | 0.00 | 90 | 1016.7 |
| 20260506122503 | 64 | 360 | 0.0 | 0.0 | 0.00 | 0.00 | 0.00 | 90 | 1016.6 |
| 20260506122005 | 64 | 360 | 0.0 | 0.0 | 0.00 | 0.00 | 0.00 | 91 | 1016.6 |
| 20260506121501 | 63 | 360 | 0.0 | 0.0 | 0.00 | 0.00 | 0.00 | 92 | 1016.5 |
| 20260506121001 | 62 | 360 | 0.0 | 0.0 | 0.00 | 0.00 | 0.00 | 92 | 1016.5 |
| 20260506120502 | 62 | 360 | 0.0 | 0.0 | 0.00 | 0.00 | 0.00 | 93 | 1016.5 |
| 20260506120001 | 62 | 360 | 0.0 | 0.0 | 0.00 | 0.00 | 0.00 | 93 | 1016.5 |
| 20260506115603 | 61 | 360 | 0.0 | 0.0 | 0.00 | 0.00 | 0.00 | 93 | 1016.5 |
| 20260506115100 | 61 | 360 | 0.0 | 0.0 | 0.00 | 0.00 | 0.00 | 93 | 1016.6 |
| 20260506114600 | 61 | 360 | 0.0 | 0.0 | 0.00 | 0.00 | 0.00 | 92 | 1016.5 |
| 20260506114103 | 61 | 360 | 0.0 | 0.0 | 0.00 | 0.00 | 0.00 | 92 | 1016.3 |
| 20260506113600 | 61 | 360 | 0.0 | 0.0 | 0.00 | 0.00 | 0.00 | 92 | 1016.4 |
| 20260506113100 | 60 | 360 | 0.0 | 0.0 | 0.00 | 0.00 | 0.00 | 92 | 1016.3 |
| 20260506112600 | 60 | 360 | 0.0 | 0.0 | 0.00 | 0.00 | 0.00 | 92 | 1016.3 |
| 20260506112101 | 60 | 360 | 0.0 | 0.0 | 0.00 | 0.00 | 0.00 | 92 | 1016.3 |
| 20260506111559 | 60 | 360 | 0.0 | 0.0 | 0.00 | 0.00 | 0.00 | 92 | 1016.4 |
| 20260506111059 | 60 | 360 | 0.0 | 0.0 | 0.00 | 0.00 | 0.00 | 92 | 1016.4 |
| 20260506110558 | 60 | 119 | 0.0 | 0.0 | 0.00 | 0.00 | 0.00 | 92 | 1016.3 |
| 20260506110113 | 60 | 119 | 0.0 | 0.0 | 0.00 | 0.00 | 0.00 | 92 | 1016.2 |
| 20260506105558 | 60 | 119 | 0.0 | 0.0 | 0.00 | 0.00 | 0.00 | 92 | 1016.2 |
| 20260506105058 | 60 | 119 | 0.0 | 0.0 | 0.00 | 0.00 | 0.00 | 92 | 1016.2 |
| 20260506104613 | 60 | 119 | 0.0 | 0.0 | 0.00 | 0.00 | 0.00 | 91 | 1016.1 |
| 20260506104057 | 60 | 119 | 0.0 | 0.0 | 0.00 | 0.00 | 0.00 | 91 | 1015.9 |
| 20260506103557 | 60 | 119 | 0.0 | 0.0 | 0.00 | 0.00 | 0.00 | 91 | 1016.0 |
| 20260506103057 | 60 | 119 | 0.0 | 0.0 | 0.00 | 0.00 | 0.00 | 91 | 1016.0 |
| 20260506102557 | 60 | 119 | 0.0 | 0.0 | 0.00 | 0.00 | 0.00 | 91 | 1016.0 |
| 20260506102059 | 60 | 119 | 0.0 | 0.0 | 0.00 | 0.00 | 0.00 | 91 | 1015.8 |
| 20260506101557 | 60 | 119 | 0.0 | 0.0 | 0.00 | 0.00 | 0.00 | 91 | 1015.9 |
| 20260506101057 | 60 | 119 | 0.0 | 0.0 | 0.00 | 0.00 | 0.00 | 91 | 1015.9 |
| 20260506100557 | 60 | 119 | 0.0 | 0.0 | 0.00 | 0.00 | 0.00 | 91 | 1016.0 |
| 20260506100110 | 60 | 119 | 0.0 | 0.0 | 0.00 | 0.00 | 0.00 | 91 | 1016.0 |
| 20260506095555 | 60 | 119 | 0.0 | 0.0 | 0.00 | 0.00 | 0.00 | 91 | 1016.1 |
| 20260506095055 | 60 | 119 | 0.0 | 0.0 | 0.00 | 0.00 | 0.00 | 91 | 1016.0 |
| 20260506094601 | 60 | 119 | 0.0 | 0.0 | 0.00 | 0.00 | 0.00 | 91 | 1016.1 |
| 20260506094054 | 60 | 119 | 0.0 | 0.0 | 0.00 | 0.00 | 0.00 | 91 | 1016.1 |
| 20260506093553 | 60 | 119 | 0.0 | 0.0 | 0.00 | 0.00 | 0.00 | 91 | 1016.0 |
| 20260506093054 | 60 | 119 | 0.0 | 0.0 | 0.00 | 0.00 | 0.00 | 91 | 1016.0 |
| 20260506092554 | 60 | 119 | 0.0 | 0.0 | 0.00 | 0.00 | 0.00 | 91 | 1015.8 |
| 20260506092054 | 60 | 119 | 0.0 | 0.0 | 0.00 | 0.00 | 0.00 | 91 | 1015.7 |
| 20260506091553 | 60 | 119 | 0.0 | 0.0 | 0.00 | 0.00 | 0.00 | 91 | 1015.7 |
| 20260506091053 | 60 | 119 | 0.0 | 0.0 | 0.00 | 0.00 | 0.00 | 91 | 1015.5 |
| 20260506090552 | 60 | 119 | 0.0 | 0.0 | 0.00 | 0.00 | 0.00 | 91 | 1015.6 |
| 20260506090053 | 60 | 119 | 0.0 | 0.0 | 0.00 | 0.00 | 0.00 | 91 | 1015.6 |
| 20260506085552 | 60 | 119 | 0.0 | 0.0 | 0.00 | 0.00 | 0.00 | 91 | 1015.8 |
| 20260506085052 | 60 | 119 | 0.0 | 0.0 | 0.00 | 0.00 | 0.00 | 91 | 1015.7 |
| 20260506084617 | 60 | 119 | 0.0 | 0.0 | 0.00 | 0.00 | 0.00 | 91 | 1015.8 |
| 20260506084051 | 60 | 119 | 0.0 | 0.0 | 0.00 | 0.00 | 0.00 | 91 | 1015.7 |
| 20260506083551 | 60 | 119 | 0.0 | 0.0 | 0.00 | 0.00 | 0.00 | 91 | 1015.8 |
| 20260506083051 | 60 | 119 | 0.0 | 0.0 | 0.00 | 0.00 | 0.00 | 91 | 1015.7 |
| 20260506082553 | 60 | 119 | 0.0 | 0.0 | 0.00 | 0.00 | 0.00 | 91 | 1015.7 |
| 20260506082049 | 60 | 119 | 0.0 | 0.0 | 0.00 | 0.00 | 0.00 | 91 | 1015.7 |
| 20260506081556 | 60 | 119 | 0.0 | 0.0 | 0.00 | 0.00 | 0.00 | 91 | 1015.7 |
| 20260506081049 | 60 | 119 | 0.0 | 0.0 | 0.00 | 0.00 | 0.00 | 91 | 1015.7 |
| 20260506080552 | 60 | 119 | 0.0 | 0.0 | 0.00 | 0.00 | 0.00 | 91 | 1015.8 |
| 20260506073047 | 61 | 119 | 0.0 | 0.0 | 0.00 | 0.00 | 0.00 | 90 | 1015.3 |
| 20260506072546 | 61 | 119 | 0.0 | 0.0 | 0.00 | 0.00 | 0.00 | 90 | 1015.4 |
| 20260506072046 | 61 | 360 | 0.0 | 0.0 | 0.00 | 0.00 | 0.00 | 90 | 1015.6 |
| 20260506071546 | 61 | 360 | 0.0 | 0.0 | 0.00 | 0.00 | 0.00 | 90 | 1015.7 |
| 20260506071045 | 61 | 360 | 0.0 | 0.0 | 0.00 | 0.00 | 0.00 | 90 | 1015.6 |
| 20260506070543 | 61 | 360 | 0.0 | 0.0 | 0.00 | 0.00 | 0.00 | 90 | 1015.8 |
| 20260506062040 | 61 | 128 | 0.0 | 0.0 | 0.00 | 0.00 | 0.00 | 89 | 1016.0 |
| 20260506061539 | 61 | 360 | 0.0 | 0.0 | 0.00 | 0.00 | 0.00 | 89 | 1016.1 |
| 20260506061039 | 61 | 134 | 0.0 | 0.0 | 0.00 | 0.00 | 0.00 | 89 | 1016.2 |
| 20260506060537 | 61 | 147 | 0.0 | 0.0 | 0.00 | 0.00 | 0.00 | 89 | 1016.2 |
| 20260506051031 | 62 | 360 | 0.0 | 0.0 | 0.00 | 0.00 | 0.00 | 88 | 1016.6 |
| 20260506050530 | 62 | 360 | 0.0 | 0.0 | 0.00 | 0.00 | 0.00 | 87 | 1016.5 |
| 20260506045027 | 63 | 360 | 0.0 | 0.0 | 0.00 | 0.00 | 0.00 | 87 | 1016.9 |
| 20260506044535 | 63 | 128 | 0.0 | 0.0 | 0.00 | 0.00 | 0.00 | 87 | 1016.9 |
| 20260506044028 | 63 | 360 | 0.0 | 0.0 | 0.00 | 0.00 | 0.00 | 86 | 1017.0 |
| 20260506043531 | 63 | 360 | 0.0 | 0.0 | 0.00 | 0.00 | 0.00 | 86 | 1017.1 |
| 20260506043025 | 63 | 360 | 0.0 | 0.0 | 0.00 | 0.00 | 0.00 | 86 | 1017.0 |
| 20260506042525 | 63 | 360 | 0.0 | 0.0 | 0.00 | 0.00 | 0.00 | 86 | 1017.0 |
| 20260506042024 | 63 | 360 | 0.0 | 0.0 | 0.00 | 0.00 | 0.00 | 85 | 1017.0 |
| 20260506041522 | 63 | 360 | 0.0 | 0.0 | 0.00 | 0.00 | 0.00 | 85 | 1017.0 |
| 20260506041021 | 63 | 360 | 0.0 | 0.0 | 0.00 | 0.00 | 0.00 | 85 | 1017.1 |
| 20260506040520 | 64 | 360 | 0.0 | 0.0 | 0.00 | 0.00 | 0.00 | 84 | 1017.2 |
| 20260506040019 | 64 | 360 | 0.0 | 0.0 | 0.00 | 0.00 | 0.00 | 84 | 1017.2 |
| 20260506035520 | 64 | 360 | 0.0 | 0.0 | 0.00 | 0.00 | 0.00 | 84 | 1017.2 |
| 20260506035019 | 64 | 360 | 0.0 | 0.0 | 0.00 | 0.00 | 0.00 | 83 | 1017.2 |
| 20260506034521 | 64 | 360 | 0.0 | 0.0 | 0.00 | 0.00 | 0.00 | 83 | 1017.1 |
| 20260506034019 | 65 | 360 | 0.0 | 0.0 | 0.00 | 0.00 | 0.00 | 82 | 1017.0 |
| 20260506033518 | 65 | 360 | 0.0 | 0.0 | 0.00 | 0.00 | 0.00 | 82 | 1016.9 |
| 20260506033018 | 65 | 360 | 0.0 | 0.0 | 0.00 | 0.00 | 0.00 | 82 | 1016.9 |
| 20260506032518 | 65 | 360 | 0.0 | 0.0 | 0.00 | 0.00 | 0.00 | 82 | 1016.9 |
| 20260506032019 | 66 | 360 | 0.0 | 0.0 | 0.00 | 0.00 | 0.00 | 81 | 1016.7 |
| 20260506031518 | 66 | 360 | 0.0 | 0.0 | 0.00 | 0.00 | 0.00 | 81 | 1016.7 |
| 20260506031017 | 66 | 140 | 0.0 | 0.0 | 0.00 | 0.00 | 0.00 | 80 | 1016.7 |
| 20260506030517 | 66 | 360 | 0.0 | 0.0 | 0.00 | 0.00 | 0.00 | 80 | 1016.6 |
| 20260506030019 | 66 | 360 | 0.0 | 0.0 | 0.00 | 0.00 | 0.00 | 79 | 1016.6 |
| 20260506025517 | 67 | 360 | 0.0 | 0.0 | 0.00 | 0.00 | 0.00 | 79 | 1016.6 |
| 20260506025017 | 67 | 360 | 0.0 | 0.0 | 0.00 | 0.00 | 0.00 | 78 | 1016.6 |
| 20260506024517 | 67 | 119 | 0.0 | 0.0 | 0.00 | 0.00 | 0.00 | 78 | 1016.6 |
| 20260506024017 | 67 | 120 | 0.0 | 0.0 | 0.00 | 0.00 | 0.00 | 78 | 1016.7 |
| 20260506023517 | 68 | 360 | 0.0 | 0.0 | 0.00 | 0.00 | 0.00 | 77 | 1016.7 |
| 20260506023029 | 68 | 360 | 0.0 | 0.0 | 0.00 | 0.00 | 0.00 | 77 | 1016.7 |
| 20260506022516 | 68 | 360 | 0.0 | 0.0 | 0.00 | 0.00 | 0.00 | 76 | 1016.5 |
| 20260506022026 | 69 | 120 | 0.0 | 0.0 | 0.00 | 0.00 | 0.00 | 75 | 1016.4 |
| 20260506021530 | 69 | 120 | 0.0 | 0.0 | 0.00 | 0.00 | 0.00 | 75 | 1016.3 |
| 20260506021021 | 69 | 119 | 0.0 | 0.0 | 0.00 | 0.00 | 0.00 | 74 | 1016.4 |
| 20260506020515 | 69 | 360 | 0.0 | 0.0 | 0.00 | 0.00 | 0.00 | 74 | 1016.2 |
| 20260506020016 | 69 | 360 | 0.0 | 0.0 | 0.00 | 0.00 | 0.00 | 74 | 1016.3 |
| 20260506015515 | 70 | 120 | 0.0 | 0.0 | 0.00 | 0.00 | 0.00 | 73 | 1016.2 |
| 20260506015015 | 70 | 121 | 0.0 | 0.0 | 0.00 | 0.00 | 0.00 | 73 | 1016.1 |
| 20260506014518 | 70 | 120 | 0.0 | 0.0 | 0.00 | 0.00 | 0.00 | 72 | 1016.1 |
| 20260506014014 | 70 | 360 | 0.0 | 0.0 | 0.00 | 0.00 | 0.00 | 72 | 1016.1 |
| 20260506013516 | 70 | 120 | 0.0 | 0.0 | 0.00 | 0.00 | 0.00 | 72 | 1016.0 |
| 20260506013018 | 70 | 120 | 0.0 | 0.0 | 0.00 | 0.00 | 0.00 | 72 | 1015.9 |
| 20260506012514 | 71 | 360 | 0.0 | 0.0 | 0.00 | 0.00 | 0.00 | 72 | 1015.9 |
| 20260506012014 | 71 | 119 | 0.0 | 0.0 | 0.00 | 0.00 | 0.00 | 72 | 1015.9 |
| 20260506011514 | 71 | 119 | 0.0 | 0.0 | 0.00 | 0.00 | 0.00 | 71 | 1015.8 |
| 20260506011012 | 71 | 360 | 0.0 | 0.0 | 0.00 | 0.00 | 0.00 | 70 | 1015.8 |
| 20260506010513 | 72 | 117 | 0.0 | 0.0 | 0.00 | 0.00 | 0.00 | 70 | 1015.7 |
| 20260506010014 | 72 | 117 | 0.0 | 1.7 | 0.00 | 0.00 | 0.00 | 69 | 1015.7 |
| 20260506005511 | 72 | 127 | 0.0 | 1.7 | 0.00 | 0.00 | 0.00 | 68 | 1015.8 |
| 20260506005013 | 72 | 125 | 0.0 | 1.7 | 0.00 | 0.00 | 0.00 | 68 | 1015.7 |
| 20260506004512 | 73 | 125 | 0.0 | 2.6 | 0.00 | 0.00 | 0.00 | 67 | 1015.5 |
| 20260506004013 | 73 | 121 | 0.9 | 2.6 | 0.00 | 0.00 | 0.00 | 66 | 1015.5 |
| 20260506003515 | 73 | 116 | 0.0 | 1.7 | 0.00 | 0.00 | 0.00 | 66 | 1015.5 |
| 20260506003013 | 73 | 121 | 0.0 | 1.7 | 0.00 | 0.00 | 0.00 | 65 | 1015.5 |
| 20260506002511 | 74 | 119 | 0.0 | 2.6 | 0.00 | 0.00 | 0.00 | 66 | 1015.5 |
| 20260506002009 | 74 | 121 | 0.0 | 2.6 | 0.00 | 0.00 | 0.00 | 64 | 1015.5 |
| 20260506001509 | 74 | 360 | 0.0 | 2.6 | 0.00 | 0.00 | 0.00 | 64 | 1015.5 |
| 20260506001009 | 74 | 111 | 0.0 | 2.6 | 0.00 | 0.00 | 0.00 | 63 | 1015.3 |
| 20260506000509 | 74 | 108 | 0.9 | 2.6 | 0.00 | 0.00 | 0.00 | 62 | 1015.3 |
| 20260506000008 | 75 | 115 | 0.9 | 6.1 | 0.00 | 0.00 | 0.00 | 62 | 1015.1 |
| 20260505235511 | 75 | 117 | 1.7 | 6.1 | 0.00 | 0.00 | 0.00 | 61 | 1015.2 |
| 20260505235008 | 75 | 118 | 0.9 | 5.2 | 0.00 | 0.00 | 0.00 | 60 | 1015.2 |
| 20260505234508 | 75 | 126 | 0.9 | 3.5 | 0.00 | 0.00 | 0.00 | 60 | 1015.3 |
| 20260505234008 | 76 | 119 | 0.9 | 4.3 | 0.00 | 0.00 | 0.00 | 59 | 1015.3 |
| 20260505233510 | 76 | 123 | 0.9 | 4.3 | 0.00 | 0.00 | 0.00 | 58 | 1015.1 |
| 20260505233007 | 76 | 123 | 0.9 | 5.2 | 0.00 | 0.00 | 0.00 | 57 | 1015.1 |